Weather History for Berlin, NH

Change the Weather History Date:

Friday, March 8, 2013

  Actual Average Record
Temperature  
Mean Temperature 30 °F -  
Max Temperature 42 °F 30 °F 62 °F (2012)
Min Temperature 17 °F 8 °F -20 °F (2007)
Degree Days  
Heating Degree Days 34    
Moisture  
Dew Point 18 °F    
Average Humidity 62    
Maximum Humidity 88    
Minimum Humidity 35    
Precipitation  
Precipitation 0.00 in - - ()
Sea Level Pressure  
Sea Level Pressure 30.20 in    
Wind  
Wind Speed 6 mph (North)    
Max Wind Speed 12 mph    
Max Gust Speed 17 mph    
Visibility 10 miles    
Events      
Averages and records for this station are not official NWS values.
T = Trace of Precipitation, MM = Missing Value Source: NWS Daily Summary

Daily Weather History Graph

Daily Weather History Graph

Search for Another Location

Airport:

Trip Planner

Search our weather history database for the weather conditions in past years. The results will help you decide how hot, cold, wet, or windy it might be!

Date:

Astronomy

Mar. 08, 2013 Rise Set
Actual Time 6:09 AM EST 5:42 PM EST
Civil Twilight 5:40 AM EST 6:11 PM EST
Nautical Twilight 5:06 AM EST 6:44 PM EST
Astronomical Twilight 4:32 AM EST 7:19 PM EST
Moon 3:58 AM EST (3/8) 2:27 PM EST (3/8)
Length of Visible Light 12h 30m
Length of Day
11h 32m
Waning Crescent, 12% of the Moon is Illuminated
Mar 8
Waning Crescent
Mar 11
New
Mar 19
First Quarter
Mar 27
Full
Apr 3
Last Quarter

Hourly Weather History & Observations

Time (EST) Temp. Windchill Dew Point Humidity Pressure Visibility Wind Dir Wind Speed Gust Speed Precip Events Conditions
1:52 AM 28.9 °F 21.9 °F 19.9 °F 69% 30.14 in 10.0 mi NNE 6.9 mph - N/A   Overcast
2:52 AM 28.0 °F 21.7 °F 19.9 °F 72% 30.12 in 10.0 mi North 5.8 mph - N/A   Overcast
3:52 AM 28.0 °F 22.8 °F 19.9 °F 72% 30.13 in 10.0 mi North 4.6 mph - N/A   Overcast
4:52 AM 28.0 °F 19.3 °F 19.9 °F 72% 30.12 in 10.0 mi North 9.2 mph - N/A   Overcast
5:52 AM 28.9 °F 21.1 °F 19.0 °F 67% 30.14 in 10.0 mi NNE 8.1 mph - N/A   Overcast
6:52 AM 28.9 °F 22.8 °F 19.0 °F 67% 30.15 in 10.0 mi Variable 5.8 mph - N/A   Overcast
7:52 AM 30.0 °F 23.2 °F 18.0 °F 61% 30.16 in 10.0 mi NNW 6.9 mph - N/A   Overcast
8:52 AM 30.0 °F 22.4 °F 18.0 °F 61% 30.17 in 10.0 mi North 8.1 mph - N/A   Overcast
9:52 AM 32.0 °F 23.0 °F 17.1 °F 54% 30.18 in 10.0 mi North 11.5 mph - N/A   Overcast
10:52 AM 33.1 °F 25.5 °F 18.0 °F 54% 30.19 in 10.0 mi North 9.2 mph - N/A   Overcast
11:52 AM 35.1 °F 28.6 °F 18.0 °F 50% 30.19 in 10.0 mi North 8.1 mph - N/A   Clear
12:52 PM 37.0 °F 30.4 °F 17.1 °F 44% 30.18 in 10.0 mi NNE 9.2 mph - N/A   Clear
1:52 PM 39.0 °F 33.4 °F 16.0 °F 39% 30.18 in 10.0 mi NNE 8.1 mph 17.3 mph N/A   Clear
2:52 PM 41.0 °F 37.1 °F 17.1 °F 38% 30.19 in 10.0 mi North 5.8 mph - N/A   Clear
3:52 PM 42.1 °F 36.1 °F 16.0 °F 35% 30.19 in 10.0 mi North 10.4 mph - N/A   Clear
4:52 PM 42.1 °F 39.2 °F 17.1 °F 37% 30.21 in 10.0 mi North 4.6 mph - N/A   Clear
5:52 PM 37.9 °F 34.4 °F 17.1 °F 43% 30.22 in 10.0 mi NNE 4.6 mph - N/A   Clear
6:52 PM 27.0 °F - 19.9 °F 75% 30.26 in 10.0 mi Calm Calm - N/A   Clear
7:52 PM 24.1 °F - 18.0 °F 77% 30.27 in 10.0 mi Calm Calm - N/A   Clear
8:52 PM 21.9 °F - 17.1 °F 82% 30.29 in 10.0 mi Calm Calm - N/A   Clear
9:52 PM 19.0 °F - 16.0 °F 88% 30.30 in 10.0 mi Calm Calm - N/A   Clear
10:52 PM 19.0 °F - 14.0 °F 81% 30.29 in 10.0 mi Calm Calm - N/A   Clear
11:52 PM 17.1 °F - 12.9 °F 84% 30.29 in 10.0 mi Calm Calm - N/A   Clear